Temp_Advection
nan nan nan nan nan nan nan nan nan nan nan nan nan nan nan nan nan nan nan nan nan nan nan nan nan nan nan nan nan nan nan nan nan nan nan nan nan nan nan nan nan nan nan nan nan
nan 0 -0 -0 -0 0 0 -0 -0 -0 -0 -0 -0 -0 -0 -0 -0 -1 -0 0 -0 -0 0 0 0 0 -0 -0 0 -0 -0 -1 -0 -0 -0 -0 -0 -0 -0 -1 -0 -0 0 0 nan
nan 0 0 -0 -0 -0 0 0 -0 -0 -0 -0 -0 -0 -0 -0 -1 -0 -0 -0 0 0 0 0 0 0 -0 -0 -0 -0 -0 -0 0 -0 -0 -0 -0 -0 -0 -0 -1 -1 -1 -0 nan
nan 0 0 -0 -0 -0 -0 0 -0 -0 -0 -0 -0 -0 -0 -0 -0 0 -0 0 -0 -0 -0 0 0 -0 -0 -0 -0 0 -0 -0 -0 -0 -0 0 0 0 -0 -0 -0 -1 -1 -0 nan
nan -0 0 0 -0 -0 -0 0 0 -0 -0 -0 -0 0 -0 -0 -1 0 -0 -0 -0 -0 -0 0 -0 0 -0 -0 0 -0 -0 0 -0 -0 0 0 -0 -0 0 -0 -0 0 -0 -1 nan
nan 0 -0 -0 -0 -0 -0 -0 -0 -0 -0 -0 -0 0 0 -1 -1 0 -0 -0 -0 -0 -0 -0 -0 0 -0 -0 -0 0 0 0 0 0 -0 0 -0 0 -0 -0 -1 -1 -1 -0 nan
nan 0 0 -0 -0 -0 -0 -0 -0 -0 0 -0 -0 0 -1 -3 0 0 -0 -0 -0 -0 0 -0 0 0 -0 -0 -0 -0 -0 -0 0 0 0 -0 0 0 0 0 0 -0 -0 -0 nan
nan -0 0 0 -0 -0 -0 -0 -0 0 0 0 0 -0 -1 -1 0 -0 0 -0 -0 0 -0 -0 0 0 -0 -0 -1 -1 -0 -0 -0 0 0 -0 0 0 0 0 -0 0 -0 -0 nan
nan -0 -0 0 0 -0 -0 -0 0 0 0 0 0 -0 -1 -0 -1 -0 -0 -0 -0 -0 -0 0 -0 -0 -0 -0 -0 -0 -0 -0 -0 0 -0 0 0 -0 0 0 0 -1 -1 -0 nan
nan -0 -0 -0 0 -0 -0 0 0 0 0 -0 -0 -0 -2 -1 -0 -0 -0 -0 -0 -0 0 -0 1 -0 -0 -0 -0 -0 -0 -0 -0 -0 0 -0 0 0 -0 0 -0 -1 0 -0 nan
nan 0 -0 0 0 0 -0 -0 -0 -0 -1 -1 -1 -1 0 0 0 -0 -0 0 0 1 0 0 -0 -0 -1 -1 -0 0 0 -1 -1 0 -0 0 0 0 -0 -0 -1 -1 -0 -0 nan
nan -0 -0 0 0 -0 -0 -1 -0 0 -0 -1 0 -1 -1 0 -0 -0 -0 0 0 0 0 -0 -0 -1 -1 -0 0 0 0 -1 0 -1 -1 0 -0 -0 -0 -0 -0 0 0 -0 nan
nan -0 -0 0 0 -0 -1 -1 -0 0 -0 -1 -0 -1 -0 -0 -0 -1 -0 0 0 0 0 -0 -2 -0 -0 0 0 1 -1 -0 -0 -0 -0 -0 -0 -0 0 0 0 -0 -1 -1 nan
nan -0 -0 0 -0 -0 -0 -0 0 1 0 -1 0 -1 -0 -0 -0 -0 -0 -0 0 0 0 -0 -1 -0 -0 0 0 -0 -1 -0 -0 -0 0 -0 0 -0 0 0 -0 -1 -1 -1 nan
nan 0 -0 0 0 -0 0 0 0 0 0 -0 -0 0 0 0 -0 -0 -0 0 0 -0 -0 -0 -0 -0 -0 -0 -0 -0 -0 0 -0 -0 -0 0 0 0 -0 -0 -0 -1 -1 -1 nan
nan 0 -0 -0 -0 -0 -0 0 0 -0 -0 -0 -0 0 0 0 0 0 1 1 1 0 0 -1 -1 0 -0 -0 -0 0 0 -1 -0 -0 -0 0 -0 -0 -0 -0 -0 -0 -1 -0 nan
nan -0 -0 -0 -0 -0 0 -0 -0 -0 -0 -0 0 0 0 0 0 0 1 1 1 0 -0 -0 -0 -0 -0 0 -0 -0 -1 -0 0 0 0 -0 0 -1 -0 -0 -0 -0 -1 -0 nan
nan -0 -0 -0 -0 0 -0 -0 -0 -1 -1 -0 -0 -0 0 -0 -0 0 0 0 -0 0 -0 0 -1 -0 0 0 -0 0 -1 -0 -0 0 -0 -0 -0 -0 0 -0 -1 -1 -0 -0 nan
nan -0 -0 -0 -0 0 -0 -0 -0 -1 -0 -0 -0 -0 0 -0 0 0 0 -1 -0 -0 -1 -0 -1 -0 -0 -0 -1 0 -0 -0 0 -0 -0 -0 -0 0 0 -0 -0 0 0 -0 nan
nan -0 -0 -0 -0 -0 -1 -0 -1 -1 -0 -0 -0 -0 -0 0 0 -0 -0 -1 -0 -1 -0 -0 -0 -0 -0 -0 0 0 -0 0 -0 -0 0 0 0 0 0 -0 -0 -0 -1 -1 nan
nan -0 -0 -0 0 0 -0 -1 -1 -1 -0 -0 0 0 0 -0 -0 -0 -0 -0 0 -0 0 -0 0 -1 0 0 0 0 0 -0 -0 0 0 -0 -0 -0 -1 -0 -0 -1 -2 -1 nan
nan 0 0 -1 -0 0 -0 -1 -0 -0 -0 -0 -0 -0 -0 -0 -0 -0 -0 -0 -1 -0 -0 0 -0 0 0 -0 0 0 -0 -1 0 0 0 0 -0 0 0 -0 0 -1 -1 -0 nan
nan -0 0 -0 -0 -0 -0 -1 -1 0 -0 -0 -0 -0 -0 -0 -0 -0 -1 -0 -1 -1 -0 0 -0 -0 -1 -1 -0 -0 -0 -0 -0 0 -0 -0 -0 0 -0 -0 -0 -0 -1 -0 nan
nan -0 0 2 0 -0 0 -0 -1 -1 -1 -1 -0 -1 -1 -1 -1 -0 -1 -1 -1 -0 -1 -1 -0 -0 -0 -0 0 -0 -0 0 -1 -0 0 -0 -1 -0 0 0 0 0 1 0 nan
nan -0 -1 -0 -0 -0 -0 -0 -0 -0 -0 -2 -0 -0 -0 -0 -0 -0 -0 -1 -1 -1 -1 -0 0 -0 -0 -0 0 -0 -0 -0 0 -0 -0 0 -0 -1 -1 -1 -1 0 1 2 nan
nan -0 -0 -0 -1 -0 -0 -0 0 -0 -0 -0 0 -0 -1 0 -0 0 0 0 -0 -0 -0 -0 -0 -0 -0 -0 -0 -0 -0 -0 -0 -1 -0 -1 -1 -0 -1 -1 -3 -1 -0 1 nan
nan nan nan nan nan nan nan nan nan nan nan nan nan nan nan nan nan nan nan nan nan nan nan nan nan nan nan nan nan nan nan nan nan nan nan nan nan nan nan nan nan nan nan nan nan
Wind_Speed
7 6 6 5 5 5 4 4 4 5 6 7 7 8 8 9 9 13 14 7 10 8 6 1 4 4 8 5 6 2 3 1 4 5 5 4 1 6 9 10 7 5 22 26 27
9 7 7 6 6 5 5 4 4 5 6 7 8 8 8 10 12 16 6 9 11 8 5 4 6 12 11 6 4 3 3 6 6 4 4 2 9 2 2 13 14 20 28 30 29
9 8 7 7 6 6 5 5 4 4 5 7 8 8 8 8 12 4 2 9 10 9 5 8 8 8 11 13 5 3 4 4 0 8 7 7 12 7 5 6 15 29 32 28 26
10 9 8 7 7 6 6 5 5 4 4 6 7 8 8 5 3 2 3 5 8 7 6 9 5 5 6 5 7 0 7 4 4 2 3 3 4 3 8 8 22 24 30 31 29
11 10 9 8 7 7 6 6 5 4 4 5 7 8 7 6 11 3 3 6 9 8 10 11 11 9 4 6 9 5 4 3 6 3 3 5 10 5 8 16 23 25 31 30 29
12 10 9 8 7 7 7 7 6 4 4 4 5 7 7 6 6 10 4 3 7 10 11 15 10 7 16 7 5 5 5 1 6 7 2 1 6 7 9 20 19 29 30 29 31
12 10 9 8 7 6 7 8 6 4 3 3 4 7 11 19 7 5 4 5 6 10 13 13 12 14 22 8 11 5 6 6 6 8 2 6 1 2 5 12 10 29 31 28 29
14 10 9 8 7 5 6 9 7 5 4 4 4 7 11 16 11 9 6 3 8 10 10 5 14 22 6 14 11 7 3 2 2 11 4 6 5 5 7 10 5 19 25 30 30
15 12 9 7 7 5 6 9 7 6 5 5 4 6 10 9 23 14 13 10 2 8 7 10 20 10 11 3 5 3 6 3 3 13 5 4 4 9 7 9 13 18 20 29 31
17 13 10 8 7 6 7 10 8 7 7 7 8 6 12 13 25 16 15 14 10 8 11 16 13 2 3 3 5 8 5 6 6 10 7 5 7 8 13 15 15 15 11 21 29
18 15 11 8 7 8 11 11 4 4 14 11 7 10 8 6 14 15 17 13 21 13 5 12 2 7 13 8 8 8 5 13 19 10 5 6 6 8 9 13 17 17 25 14 25
19 15 11 8 9 11 15 13 7 2 9 17 27 21 17 8 5 16 17 10 9 6 1 5 7 13 10 12 9 7 11 20 2 15 6 8 8 5 7 10 18 23 26 21 22
19 12 7 4 6 13 16 18 12 9 2 9 16 23 15 10 13 19 18 19 5 5 6 8 15 8 8 15 16 15 14 8 6 7 2 5 5 5 6 17 19 25 24 21 28
16 10 6 3 8 9 7 5 20 11 5 5 5 8 12 7 8 20 22 16 4 9 6 7 18 13 13 9 10 12 5 4 3 3 2 2 5 5 7 9 11 21 25 30 34
12 7 0 5 8 10 7 13 11 6 3 5 5 4 10 14 4 17 21 20 10 9 4 11 7 10 6 8 6 9 6 3 4 3 3 1 1 6 5 7 9 17 21 30 36
9 4 6 6 12 4 4 11 9 5 4 2 8 7 6 9 12 5 26 23 16 6 5 11 18 6 7 7 4 7 5 8 4 2 3 4 5 7 4 5 4 8 21 26 35
6 2 10 10 10 2 3 12 5 2 5 5 6 7 8 8 6 9 12 13 8 2 5 7 10 11 7 7 8 4 6 4 5 4 6 3 4 9 5 7 5 9 20 29 32
3 2 10 13 5 2 4 4 1 5 7 2 5 8 8 7 7 7 10 11 8 4 3 3 10 5 4 11 8 4 8 5 4 3 6 2 5 6 5 14 17 16 13 14 27
1 2 9 12 7 2 2 2 6 4 5 4 5 3 4 4 4 6 9 14 10 12 9 6 7 4 6 5 10 6 4 7 4 1 3 4 4 3 7 8 14 11 18 17 27
2 5 4 15 10 4 4 4 5 5 4 4 3 4 2 4 9 7 8 9 10 14 9 6 3 4 5 5 1 8 3 1 3 1 4 4 3 5 7 11 10 7 17 17 24
2 4 8 18 13 2 3 6 6 14 9 4 4 2 1 2 1 4 6 4 3 4 21 3 3 12 3 3 6 4 4 1 4 5 5 2 7 8 17 16 13 15 18 22 29
2 1 13 19 3 0 2 5 6 7 7 4 6 5 3 2 6 7 5 8 23 7 6 3 4 3 6 5 6 6 2 5 4 8 3 5 6 2 10 8 7 16 20 8 27
4 3 18 16 2 3 6 7 12 3 0 2 5 4 3 4 3 4 7 15 29 11 6 2 1 3 9 8 6 5 4 2 4 3 3 2 6 2 9 9 18 12 19 16 19
4 3 1 17 9 1 4 5 7 22 14 8 6 10 8 9 7 5 9 7 17 13 25 7 3 6 6 6 3 6 8 5 5 2 3 5 6 5 6 11 12 18 18 19 26
7 3 5 3 5 5 3 6 7 7 8 21 7 8 5 7 8 7 6 7 8 12 8 4 2 4 2 3 5 4 11 11 3 5 2 7 5 5 9 8 5 6 22 30 27
6 6 9 7 15 4 5 6 6 5 4 4 5 6 9 5 1 5 5 3 5 6 5 4 3 4 5 5 6 5 8 6 9 12 4 4 7 6 19 20 26 13 14 27 27
14 6 4 7 9 3 5 4 7 7 2 9 3 2 5 2 9 14 16 17 13 6 2 2 3 3 4 5 6 4 5 6 5 12 5 10 9 16 8 14 18 19 10 10 7
Wind_Direction
339 332 325 323 322 318 306 291 273 256 246 242 245 250 261 275 279 275 263 233 211 247 296 270 211 278 272 293 297 210 76 245 210 163 254 259 131 6 87 105 77 153 146 161 161
341 330 319 310 307 308 308 299 283 264 250 244 242 246 260 278 286 274 267 229 204 214 264 269 259 300 279 298 303 157 121 216 211 187 214 215 205 332 139 90 90 104 134 147 160
335 331 323 308 294 292 297 296 288 275 253 239 239 244 257 285 305 301 213 212 208 216 241 265 262 281 278 279 247 200 191 165 74 219 182 190 211 199 130 104 148 144 150 165 171
327 321 319 311 296 279 277 281 282 276 263 243 236 240 250 265 244 152 27 208 184 202 223 247 257 232 236 195 241 316 245 223 177 117 298 255 170 212 173 219 177 160 159 169 175
335 319 309 306 297 278 256 259 270 275 267 248 233 233 239 247 247 7 323 187 203 203 226 231 254 267 242 272 308 223 208 205 150 128 256 258 138 235 131 148 160 166 169 174 181
333 322 309 302 297 280 247 238 250 262 269 258 234 229 224 248 238 243 281 220 212 222 220 225 248 301 282 290 291 247 217 218 153 163 154 265 145 153 165 149 163 173 181 182 186
335 321 309 300 296 278 240 226 234 248 260 263 240 231 233 231 229 213 276 274 227 228 231 237 285 277 284 318 5 347 345 342 189 165 173 158 232 260 187 204 201 190 196 195 192
338 324 308 295 293 270 231 216 221 233 243 246 251 247 248 223 202 216 224 213 216 219 240 289 302 295 331 329 345 348 86 297 212 164 182 132 279 236 142 285 330 179 203 202 197
339 326 308 291 285 258 219 206 213 226 230 233 250 251 261 210 219 207 232 228 226 220 251 295 291 303 327 49 359 10 283 243 268 186 146 159 203 231 206 216 278 276 221 207 200
338 326 307 286 269 236 205 194 206 226 227 229 232 285 244 216 205 213 215 226 239 232 255 267 276 8 346 115 249 260 276 283 246 185 190 158 254 280 262 196 222 254 195 223 200
337 325 306 281 248 214 192 174 180 232 232 218 215 223 7 229 191 208 196 221 230 238 220 262 101 242 251 214 247 285 280 266 292 179 64 208 228 272 232 208 218 210 197 230 188
338 329 311 279 235 208 196 188 144 11 278 263 243 256 262 267 238 215 203 225 211 223 255 353 257 243 246 249 235 241 256 276 295 129 98 226 247 249 206 221 198 218 218 238 181
341 341 334 294 206 203 211 198 172 345 257 276 234 239 246 216 217 201 201 220 190 222 220 199 244 241 230 264 264 260 232 259 136 133 95 132 290 229 197 205 233 242 249 217 191
343 345 347 123 151 177 212 242 234 304 35 264 199 240 232 223 209 187 191 201 199 218 242 237 260 249 259 244 220 261 246 280 66 134 244 114 278 248 211 203 203 228 233 218 212
339 337 176 142 133 118 33 168 178 159 51 164 182 153 188 187 143 197 195 201 210 232 122 258 297 295 276 244 188 229 253 260 116 150 142 208 44 267 181 212 229 219 226 218 213
331 318 190 184 161 71 76 114 136 39 270 215 162 167 141 207 234 168 191 206 234 230 237 246 275 221 229 287 273 276 311 30 50 43 10 248 152 293 236 188 202 200 218 214 212
321 271 188 173 144 113 28 151 47 151 322 180 178 157 179 206 246 165 178 204 205 165 267 314 271 273 228 281 305 111 60 348 357 353 233 166 98 248 278 214 176 192 195 210 210
323 191 182 160 153 98 103 71 196 247 265 180 144 155 185 173 223 195 158 209 249 191 60 199 317 184 215 197 187 196 144 152 238 238 269 144 226 248 203 209 189 176 184 199 208
28 174 197 151 155 92 119 97 215 234 297 66 65 86 301 250 188 164 196 211 218 179 180 186 259 293 185 177 146 269 205 193 157 139 83 220 274 294 309 271 231 198 177 198 204
4 322 240 180 162 142 75 234 243 249 280 57 91 159 240 246 180 171 189 232 238 192 179 235 280 218 326 78 331 176 177 355 14 299 280 284 230 231 243 246 266 276 222 214 206
32 331 159 162 163 163 166 239 279 293 291 89 177 225 312 328 144 161 240 249 176 193 204 157 99 284 55 151 215 351 287 38 127 139 186 295 288 221 207 210 221 235 233 235 204
315 23 166 162 116 212 191 224 278 275 358 20 51 49 30 358 358 21 20 27 7 331 125 233 158 209 223 278 200 171 167 132 132 275 225 160 268 301 234 225 312 285 247 228 210
350 306 173 180 135 272 297 289 280 199 23 71 46 66 0 18 11 15 12 36 19 26 22 286 36 22 347 350 8 48 335 112 153 113 253 146 273 297 136 190 243 250 266 257 208
16 30 119 207 252 52 295 297 342 29 43 30 46 54 28 27 14 16 4 7 7 34 22 45 64 153 191 211 217 311 313 315 117 81 285 236 283 289 261 186 191 160 175 192 201
23 33 20 302 317 320 354 3 52 16 16 19 42 43 33 25 355 6 356 331 357 26 32 67 59 24 284 330 37 330 335 338 29 228 114 289 322 354 347 306 290 237 165 160 165
32 15 347 311 314 334 5 342 52 343 50 9 60 27 67 79 103 308 352 15 270 331 30 2 289 45 311 328 12 324 326 347 350 359 332 22 71 348 330 24 20 355 207 189 173
26 20 338 320 339 43 346 53 43 17 59 59 14 45 46 330 314 296 278 264 249 258 303 275 141 43 264 336 359 353 4 54 90 39 338 41 329 335 352 19 17 8 347 313 293
Height
1528 1527 1526 1525 1524 1524 1523 1523 1523 1523 1523 1524 1524 1524 1525 1525 1525 1523 1521 1523 1524 1524 1525 1527 1525 1525 1525 1524 1523 1524 1533 1542 1532 1531 1526 1518 1521 1519 1519 1518 1517 1517 1518 1523 1532
1527 1526 1524 1524 1523 1523 1522 1522 1522 1522 1522 1522 1522 1523 1523 1523 1522 1520 1520 1520 1522 1523 1525 1526 1525 1525 1527 1523 1523 1522 1534 1530 1520 1519 1520 1518 1520 1520 1522 1521 1522 1521 1523 1526 1530
1526 1525 1523 1522 1522 1522 1521 1521 1521 1521 1520 1521 1521 1522 1522 1522 1522 1517 1517 1518 1520 1522 1524 1524 1526 1526 1525 1523 1521 1520 1526 1518 1517 1519 1517 1517 1519 1521 1521 1523 1521 1522 1524 1528 1529
1524 1523 1522 1520 1520 1520 1520 1519 1519 1520 1519 1519 1520 1520 1521 1522 1524 1516 1517 1518 1519 1521 1522 1523 1525 1526 1524 1521 1517 1520 1514 1514 1514 1515 1515 1515 1516 1518 1516 1515 1517 1520 1520 1525 1528
1523 1521 1520 1518 1518 1518 1518 1518 1518 1518 1518 1518 1518 1519 1520 1521 1516 1516 1516 1517 1518 1519 1521 1523 1522 1521 1523 1517 1516 1515 1511 1511 1512 1514 1514 1514 1515 1520 1518 1517 1519 1522 1524 1523 1526
1520 1519 1518 1517 1516 1515 1516 1516 1517 1517 1517 1517 1517 1518 1519 1520 1514 1514 1515 1516 1517 1518 1520 1520 1519 1522 1520 1516 1516 1511 1509 1510 1511 1512 1513 1514 1519 1518 1519 1520 1521 1522 1523 1523 1524
1518 1516 1515 1514 1514 1513 1513 1514 1515 1516 1517 1517 1517 1517 1517 1511 1513 1513 1514 1516 1517 1517 1518 1520 1521 1523 1520 1514 1512 1513 1515 1510 1510 1511 1512 1514 1518 1518 1518 1518 1517 1519 1520 1522 1523
1515 1514 1512 1512 1511 1511 1511 1512 1514 1515 1516 1516 1516 1515 1511 1510 1512 1511 1513 1515 1516 1517 1517 1519 1519 1521 1517 1514 1512 1513 1515 1522 1505 1507 1512 1514 1526 1509 1510 1518 1522 1520 1520 1521 1521
1513 1511 1509 1509 1509 1509 1509 1511 1513 1514 1514 1515 1516 1515 1507 1505 1506 1509 1511 1513 1516 1517 1517 1518 1519 1517 1515 1519 1527 1523 1533 1525 1514 1504 1510 1512 1518 1506 1504 1508 1515 1521 1518 1518 1519
1510 1508 1506 1506 1506 1507 1508 1510 1511 1513 1513 1514 1514 1517 1503 1500 1502 1507 1511 1513 1515 1516 1517 1518 1518 1519 1519 1524 1542 1525 1526 1514 1515 1506 1507 1513 1514 1505 1506 1500 1504 1510 1513 1517 1516
1507 1504 1503 1502 1503 1504 1506 1510 1515 1515 1511 1504 1502 1500 1500 1501 1503 1506 1509 1512 1514 1516 1520 1516 1525 1530 1515 1516 1511 1512 1520 1521 1504 1501 1511 1515 1511 1505 1503 1502 1502 1504 1511 1512 1514
1503 1500 1499 1498 1500 1502 1504 1505 1507 1510 1505 1498 1499 1499 1498 1503 1504 1504 1508 1512 1512 1517 1514 1521 1529 1512 1509 1508 1511 1511 1519 1512 1499 1502 1510 1514 1510 1506 1504 1502 1502 1500 1506 1510 1512
1501 1498 1496 1496 1497 1500 1502 1503 1506 1507 1504 1494 1493 1494 1495 1499 1500 1501 1506 1508 1510 1514 1514 1524 1509 1503 1507 1506 1508 1507 1514 1504 1506 1505 1503 1512 1515 1504 1500 1501 1505 1505 1506 1509 1510
1499 1497 1495 1495 1499 1499 1501 1503 1505 1507 1515 1497 1492 1491 1494 1495 1498 1498 1501 1506 1508 1512 1512 1515 1499 1504 1503 1505 1501 1515 1488 1490 1493 1509 1523 1509 1537 1507 1500 1500 1498 1500 1504 1505 1506
1497 1496 1495 1496 1497 1499 1502 1500 1504 1509 1528 1488 1489 1487 1489 1492 1492 1496 1499 1503 1506 1506 1510 1509 1502 1504 1504 1497 1489 1497 1484 1487 1492 1503 1511 1514 1525 1502 1496 1500 1491 1489 1493 1498 1499
1496 1495 1495 1496 1497 1500 1500 1502 1506 1520 1526 1491 1482 1484 1489 1489 1490 1492 1496 1500 1499 1501 1501 1499 1492 1494 1491 1484 1483 1482 1485 1494 1501 1510 1534 1514 1519 1511 1492 1484 1480 1476 1480 1488 1494
1494 1493 1493 1495 1498 1498 1500 1504 1520 1531 1486 1488 1486 1483 1487 1489 1488 1491 1496 1500 1506 1515 1515 1498 1491 1481 1483 1488 1481 1485 1508 1538 1538 1540 1540 1515 1520 1504 1477 1473 1470 1470 1470 1476 1484
1492 1492 1493 1495 1496 1498 1500 1505 1523 1498 1487 1474 1478 1483 1490 1485 1487 1488 1493 1501 1496 1497 1514 1517 1517 1481 1471 1479 1489 1487 1502 1534 1541 1548 1533 1513 1521 1490 1471 1463 1465 1461 1468 1474 1482
1493 1493 1493 1495 1496 1498 1500 1519 1512 1492 1480 1478 1481 1493 1494 1485 1486 1489 1492 1491 1486 1490 1510 1516 1504 1469 1468 1466 1475 1487 1500 1489 1512 1516 1532 1516 1493 1477 1473 1466 1464 1460 1460 1466 1473
1493 1492 1492 1495 1496 1498 1502 1512 1497 1481 1478 1477 1490 1488 1492 1485 1490 1493 1492 1475 1479 1476 1478 1486 1505 1471 1466 1466 1471 1477 1476 1500 1519 1527 1526 1515 1502 1497 1482 1473 1465 1460 1458 1461 1465
1494 1492 1492 1494 1497 1499 1510 1503 1487 1477 1475 1476 1483 1486 1488 1487 1482 1485 1484 1474 1468 1468 1468 1476 1493 1484 1472 1477 1484 1484 1490 1489 1502 1515 1529 1533 1510 1468 1464 1461 1459 1454 1456 1458 1461
1493 1494 1493 1494 1499 1500 1503 1492 1483 1478 1475 1474 1475 1480 1483 1483 1483 1484 1484 1477 1471 1468 1475 1472 1491 1501 1483 1468 1466 1469 1478 1494 1516 1512 1511 1513 1504 1461 1460 1460 1462 1457 1457 1457 1458
1493 1493 1494 1495 1505 1503 1494 1489 1479 1474 1475 1474 1480 1479 1479 1483 1490 1482 1483 1481 1474 1471 1478 1471 1491 1512 1500 1483 1473 1479 1477 1479 1491 1502 1507 1513 1501 1455 1458 1461 1458 1456 1456 1456 1458
1495 1496 1494 1496 1494 1495 1495 1491 1485 1479 1478 1479 1484 1479 1482 1489 1488 1491 1487 1481 1481 1478 1475 1472 1492 1498 1516 1500 1490 1489 1480 1475 1487 1508 1503 1502 1485 1467 1462 1455 1450 1448 1450 1448 1448
1498 1501 1504 1504 1496 1494 1491 1492 1492 1491 1485 1484 1487 1491 1493 1503 1499 1498 1492 1486 1481 1481 1483 1486 1499 1492 1489 1488 1486 1487 1484 1480 1484 1484 1491 1487 1484 1477 1469 1459 1453 1452 1450 1449 1450
1503 1505 1502 1500 1496 1493 1493 1497 1494 1491 1490 1496 1497 1495 1496 1504 1503 1505 1499 1496 1493 1482 1488 1489 1500 1495 1495 1486 1486 1488 1482 1481 1478 1480 1475 1476 1485 1479 1472 1457 1452 1454 1450 1447 1449
1508 1508 1508 1503 1499 1498 1501 1498 1497 1494 1493 1494 1494 1495 1498 1498 1496 1494 1492 1490 1488 1490 1492 1495 1498 1503 1508 1491 1490 1498 1495 1491 1490 1497 1492 1503 1506 1486 1477 1468 1463 1458 1457 1455 1456